Tracking 19832 objects as of 26-Aug-2019
HD Live streaming from Space Station
objects crossing your sky now

MOLNIYA 1-75

Track MOLNIYA 1-75 now!
MOLNIYA 1-75 is classified as:


NORAD ID: 19807
Int'l Code: 1989-014A
Perigee: 1,553.9 km
Apogee: 38,832.6 km
Inclination: 64.2 °
Period: 718.1 minutes
Semi major axis: 26564 km
RCS: 12.6191 m2 (large)
Launch date: February 15, 1989
Source: Commonwealth of Independent States (former USSR) (CIS)
Launch site: TYURATAM MISSILE AND SPACE COMPLEX (TTMTR)
aabbcc
Your satellite tracking list
Your tracking list is empty




NASA's NSSDC Master Catalog

Two Line Element Set (TLE):
1 19807U 89014A   19231.82288370 -.00000610  00000-0  15482-1 0  9990
2 19807  64.2362  48.4861 7016709 273.1782  15.7581  2.00519248223376
Source of the keplerian elements: AFSPC